Погода в Маданге

Папуа-Новая Гвинея     5°13′46″S   145°47′05″E
темп.,
°C
ветер,
м/с
пор.,
м/с
влажн.,
%
обл.,
%
осадки,
мм/ч
давл.,
гПа
погр.,
м
11 мая, вт
вт1101:00+23зсз2294100 2.3 101079
04:00+23з2395100 3.1 1008119
07:00+23зсз239498 0.0 1010135
10:00+28з127195 0.0 1011607
13:00+30всв226695 0.1 1007944
16:00+27ссв2488100 2.4 1007320
19:00+25всв129264 3.0 1009116
22:00+24ссз019394 6.3 101151
12 мая, ср
ср1201:00+24з119472 1.3 100955
04:00+23з229481 2.2 100993
07:00+23з239473 0.3 1010103
10:00+28зюз0172100 0.3 1011481
13:00+29всв2269100 0.6 1008914
16:00+28всв357835 1.4 1008552
19:00+24св1392100 2.9 1010148
22:00+24ссв0192100 4.8 101187
13 мая, чт
чт1301:00+23з1294100 1.6 101073
04:00+23з229694 1.6 100990
07:00+23зюз1294100 0.0 101185
10:00+28юз1169100 0.0 1011587
13:00+29всв226390 0.0 1007776
16:00+28в3367100 0.0 1006548
19:00+25всв1384100 0.0 1008234
22:00+25вюв128755 0.0 1010244
14 мая, пт
пт1401:00+24ю128843 0.0 1009144
04:00+24зюз119135 0.1 100876
07:00+24зюз11907 0.0 100986
10:00+29в13668 0.0 1010891
13:00+30в33618 0.0 10071063
16:00+29в34695 0.0 1006864
19:00+26в138514 0.0 1008249
22:00+25вюв128957 0.0 1009235
15 мая, сб
сб1501:00+25ююв129045 0.2 1008213
04:00+24юз119233 0.6 1007120
07:00+24юз119370 0.1 100986
10:00+29всв12685 0.2 1009850
13:00+30всв43636 0.0 10061070
16:00+29в456963 0.0 10051018
19:00+26всв258310 0.0 1006351
22:00+26вюв13868 0.0 1008253